"Pseudo-MPEC" for C3XYJ82

Created 2020 Nov 30 16:07:04 UT using Find_Orb

Click here for an explanation of pseudo-MPECs

 
 Astrometry: 
     C3XYJ82  C2020 11 16.51594909 47 29.16 +02 04 32.7    ~BGDM 22.25GVNEOCPG96
     C3XYJ82  C2020 11 16.52254009 47 28.88 +02 04 31.6    ~BGDM 21.80GVNEOCPG96
     C3XYJ82  C2020 11 16.52914209 47 28.56 +02 04 31.9    ~BGDM 21.88GVNEOCPG96
     C3XYJ82  C2020 11 16.53572609 47 28.37 +02 04 31.4    ~BGDM 21.12GVNEOCPG96

Station data:
(G96) Mt. Lemmon Survey  (N32.442754 W110.788720)  US/Arizona.  Observers T.
   A. Pruyne, B. M. Africano, E. J. Christensen, G. A. Farneth, D. C. Fuls,
   A. R. Gibbs, A. D. Grauer, H. Gröller, J. A. Johnson, R. A. Kowalski, S.
   M. Larson, G. J. Leonard, D. Rankin, R. L. Seaman, F. C. Shelly. 1.5-m
   reflector + 10K CCD.

Orbital elements:  C3XYJ82
   Perihelion 2020 Oct 15.480145 +/- 174 TT = 11:31:24 (JD 2459137.980145)
Epoch 2020 Nov 17.0 TT = JDT 2459170.5   Earth MOID: 0.0154   Ma: 0.0008
M  22.25706087 +/- 80               (J2000 ecliptic)          AutoNEOCP
n   0.68441452 +/- 0.758            Peri.  196.18402 +/- 70
a   1.27523406 +/- 0.942            Node   188.73675 +/- 41
e   0.2569098 +/- 0.23              Incl.    1.83222 +/- 60
P   1.44/525.99d           H 23.4   G  0.15   U 12.6  SR
q 0.94761383 +/- 1.04    Q 1.60285430 +/- 607
From 4 observations 2020 Nov. 16 (28.5 min); mean residual 0".38
Residuals in arcseconds: 
201116 G96  .22+  .27+    201116 G96  .73-  .19+    
201116 G96  .03+  .48-    201116 G96  .47+  .05+    

Ephemerides (geocentric):
Date (UTC) HH   RA              Dec         delta   r     elong  mag " sig PA
---- -- -- --  -------------   -----------  ------ ------ -----  --- ---- ---
2020 11 30 16  09 42 01.450   +02 03 18.19  .15899 1.0292 101.3 21.9  55d 179
2020 11 30 17  09 42 00.055   +02 03 21.21  .15904 1.0294 101.4 21.9  55d 179
2020 11 30 18  09 41 58.655   +02 03 24.26  .15909 1.0295 101.4 21.9  54d 179
2020 11 30 19  09 41 57.252   +02 03 27.34  .15914 1.0296 101.5 21.9  54d 179
2020 11 30 20  09 41 55.844   +02 03 30.45  .15919 1.0298 101.5 21.9  54d 179
2020 11 30 21  09 41 54.433   +02 03 33.58  .15924 1.0299 101.6 21.9  54d 179
2020 11 30 22  09 41 53.017   +02 03 36.74  .15929 1.0300 101.6 21.9  54d 179
2020 11 30 23  09 41 51.598   +02 03 39.92  .15934 1.0302 101.7 21.9  54d 179
2020 12 01 00  09 41 50.175   +02 03 43.14  .15939 1.0303 101.7 21.9  54d 179
2020 12 01 01  09 41 48.747   +02 03 46.38  .15944 1.0304 101.8 21.9  54d 179
2020 12 01 02  09 41 47.316   +02 03 49.65  .15949 1.0306 101.8 21.9  54d 179
2020 12 01 03  09 41 45.880   +02 03 52.94  .15954 1.0307 101.9 21.9  54d 179
2020 12 01 04  09 41 44.441   +02 03 56.27  .15959 1.0308 101.9 21.9  54d 179
2020 12 01 05  09 41 42.997   +02 03 59.62  .15964 1.0310 102.0 21.9  54d 179
2020 12 01 06  09 41 41.549   +02 04 03.00  .15969 1.0311 102.0 21.9  55d 179
2020 12 01 07  09 41 40.098   +02 04 06.40  .15974 1.0312 102.1 21.9  55d 179
2020 12 01 08  09 41 38.642   +02 04 09.84  .15979 1.0314 102.1 21.9  55d 179
2020 12 01 09  09 41 37.182   +02 04 13.30  .15984 1.0315 102.1 21.9  55d 179
2020 12 01 10  09 41 35.717   +02 04 16.79  .15989 1.0316 102.2 21.9  55d 179
2020 12 01 11  09 41 34.249   +02 04 20.31  .15994 1.0318 102.2 21.9  55d 179
2020 12 01 12  09 41 32.777   +02 04 23.86  .15999 1.0319 102.3 21.9  55d 179
2020 12 01 13  09 41 31.300   +02 04 27.43  .16004 1.0320 102.3 21.9  55d 179
2020 12 01 14  09 41 29.819   +02 04 31.03  .16009 1.0322 102.4 21.9  55d 179
2020 12 01 15  09 41 28.334   +02 04 34.66  .16014 1.0323 102.4 21.9  55d 179
2020 12 01 16  09 41 26.845   +02 04 38.32  .16019 1.0324 102.5 21.9  55d 179
2020 12 01 17  09 41 25.352   +02 04 42.01  .16024 1.0326 102.5 21.9  55d 179
2020 12 01 18  09 41 23.854   +02 04 45.73  .16029 1.0327 102.6 21.9  55d 179
2020 12 01 19  09 41 22.352   +02 04 49.47  .16033 1.0329 102.6 21.9  55d 179
2020 12 01 20  09 41 20.846   +02 04 53.25  .16038 1.0330 102.7 21.9  55d 179
2020 12 01 21  09 41 19.336   +02 04 57.05  .16043 1.0331 102.7 21.9  55d 179
2020 12 01 22  09 41 17.821   +02 05 00.88  .16048 1.0333 102.8 21.9  55d 179
2020 12 01 23  09 41 16.302   +02 05 04.74  .16053 1.0334 102.8 21.9  55d 179
2020 12 02 00  09 41 14.779   +02 05 08.63  .16058 1.0335 102.9 21.9  55d 179
2020 12 02 01  09 41 13.252   +02 05 12.55  .16063 1.0337 102.9 21.9  56d 179
2020 12 02 02  09 41 11.720   +02 05 16.50  .16068 1.0338 103.0 21.9  56d 179
2020 12 02 03  09 41 10.184   +02 05 20.47  .16072 1.0339 103.0 21.9  56d 179
2020 12 02 04  09 41 08.643   +02 05 24.48  .16077 1.0341 103.0 21.9  56d 179
2020 12 02 05  09 41 07.098   +02 05 28.51  .16082 1.0342 103.1 21.9  56d 179
2020 12 02 06  09 41 05.549   +02 05 32.58  .16087 1.0343 103.1 21.9  56d 179
2020 12 02 07  09 41 03.995   +02 05 36.67  .16092 1.0345 103.2 21.9  56d 179
2020 12 02 08  09 41 02.437   +02 05 40.79  .16097 1.0346 103.2 21.9  56d 179
2020 12 02 09  09 41 00.875   +02 05 44.95  .16101 1.0348 103.3 21.9  56d 179
2020 12 02 10  09 40 59.308   +02 05 49.13  .16106 1.0349 103.3 21.9  56d 179
2020 12 02 11  09 40 57.737   +02 05 53.34  .16111 1.0350 103.4 21.9  56d 179
2020 12 02 12  09 40 56.161   +02 05 57.58  .16116 1.0352 103.4 21.9  56d 179
2020 12 02 13  09 40 54.581   +02 06 01.85  .16121 1.0353 103.5 21.9  56d 179
2020 12 02 14  09 40 52.997   +02 06 06.15  .16125 1.0354 103.5 21.9  56d 179
2020 12 02 15  09 40 51.408   +02 06 10.49  .16130 1.0356 103.6 21.9  56d 179